Regional Weather Roundup
Issued by NWS

Home | Current Version | Previous Version | Graphics & Text | Print | Product List | Glossary On
Versions: 1 2 3 4 5 6 7 8 9 10 11 12 13 14 15 16 17 18 19 20 21 22 23 24 25 26 27 28 29 30 31 32 33 34 35 36 37 38 39 40 41 42 43 44 45 46 47 48 49 50
000
ASUS45 KCYS 230610
RWRWY

WYOMING REGIONAL WEATHER ROUNDUP
NATIONAL WEATHER SERVICE CHEYENNE WY
1200 AM MDT MON MAY 23 2016

NOTE:  "FAIR" INDICATES FEW OR NO CLOUDS BELOW 12,000 FEET
WITH NO SIGNIFICANT WEATHER AND/OR OBSTRUCTIONS TO VISIBILITY.

WYZ001-230700-
YELLOWSTONE NATIONAL PARK

CITY           SKY/WX    TMP DP  RH WIND       PRES   REMARKS
LK YELLOWSTONE   N/A     33  28  81 VRB7      29.98S WCI  27
6HR MIN TEMP:  33; 6HR MAX TEMP:  42;

W YELLOWSTONE  NOT AVBL

$$
WYZ002>013-054>058-071-098>099-230700-
NORTHERN WYOMING

CITY           SKY/WX    TMP DP  RH WIND       PRES   REMARKS
JACKSON        FAIR      36  34  93 S3        30.00R
CODY           FAIR      48  27  43 NW8       29.85S
GREYBULL       MOCLDY    56  24  29 W7        29.81R
6HR MIN TEMP:  56; 6HR MAX TEMP:  69;

WORLAND        FAIR      46  26  45 SE5       29.82S
6HR MIN TEMP:  45; 6HR MAX TEMP:  65;

SHERIDAN       FAIR      45  28  51 W9        29.77R
6HR MIN TEMP:  40; 6HR MAX TEMP:  67;

BUFFALO        FAIR      52  24  33 NW5       29.81R
GILLETTE       FAIR      49  33  54 SW16      29.75R
6HR MIN TEMP:  49; 6HR MAX TEMP:  62;

HULETT         FAIR      50  36  57 S7        29.75R
NEWCASTLE      FAIR      46  34  61 N6        29.78R

$$
WYZ014>020-022>026-101>103-230700-
CENTRAL WYOMING

CITY           SKY/WX    TMP DP  RH WIND       PRES   REMARKS
BIG PINEY      FAIR      35  26  69 CALM      30.03S
6HR MIN TEMP:  30; 6HR MAX TEMP:  48; 6HR PCP: TRACE;

PINEDALE       FAIR      32  27  80 CALM      30.03S
DUBOIS         FAIR      37  23  56 W14G28    29.95S WCI  29
LANDER         FAIR      47  22  37 NW8       29.88F
6HR MIN TEMP:  43; 6HR MAX TEMP:  55;

RIVERTON       FAIR      43  28  55 W9        29.89F
6HR MIN TEMP:  43; 6HR MAX TEMP:  59;

CASPER         FAIR      45  28  51 W17       29.87F
6HR MIN TEMP:  40; 6HR MAX TEMP:  50;

DOUGLAS        FAIR      42  35  76 NE5       29.86S
6HR MIN TEMP:  42; 6HR MAX TEMP:  54; 6HR PCP: TRACE;


$$
WYZ021-027>030-104>119-230700-
SOUTHERN WYOMING

CITY           SKY/WX    TMP DP  RH WIND       PRES   REMARKS
EVANSTON       FAIR      34  30  85 N8        30.05F WCI  27
6HR MIN TEMP:  34; 6HR MAX TEMP:  44;

KEMMERER         N/A     32  30  93 W6        30.05F WCI  26
FORT BRIDGER   CLEAR     34  34 100 W6        30.08S WCI  29
ROCK SPRINGS   FAIR      38  31  76 SW12      30.03S WCI  30
6HR MIN TEMP:  37; 6HR MAX TEMP:  48;

DIXON          FAIR      34  31  90 CALM      30.07S
RAWLINS        FAIR      38  32  79 W10       29.99F WCI  31
6HR MIN TEMP:  38; 6HR MAX TEMP:  47;

SARATOGA       FAIR      32  30  93 S10       30.03S WCI  24
LARAMIE        FAIR      34  28  79 E6        29.96F WCI  29
6HR MIN TEMP:  33; 6HR MAX TEMP:  49; 6HR PCP:  0.01;

CHEYENNE       FAIR      48  29  47 W20G29    29.89R
6HR MIN TEMP:  46; 6HR MAX TEMP:  56;

TORRINGTON     NOT AVBL
PINE BLUFFS    MOCLDY    48  32  53 NW13      29.90R

$$



USA.gov is the U.S. government's official web portal to all federal, state and local government web resources and services.